Lael, Brad
United StatesManBorn 19651994 – 2024Runner id 104723
Events
52
1994 – 2024
Best pace
15.649
km/h · 1996
Best finish
3rd
of 480 · 2000
Distance raced
3,002
km · splits not double-counted
Pace over time
km/h · higher is faster
Pace over time: 52 races from 1994 to 2024, ranging from 6.04 to 15.65 kilometres per hour, where higher is faster. A second, age-graded series is drawn above it; the gap between the two is the age credit.
- Actual pace
- Age-graded pace
Results
| Date | Event | Distance | Result | Pace km/h | Placing |
|---|---|---|---|---|---|
| 1994-02-05 | Jed Smith Ultra Classic - 50 Km RaceUnited States | 50km | 3:15:17 h | 15.362 | 1/85 |
| 1995-09-03 | Run On The Sly 50 KmUnited States | 50km | 4:34:46 h | 10.918 | 1/61 |
| 1996-02-03 | Jed Smith Ultra Classic - 50 Km RaceUnited States | 50km | 3:11:42 h | 15.649 | 2/134 |
| 1996-08-17 | Cameron Park 50 MileUnited States | 50mi | 7:23:53 h | 10.877 | 10/42 |
| 1996-09-01 | Run On The Sly 50 KmUnited States | 50km | 4:41:58 h | 10.640 | 3/71 |
| 1997-01-18 | Jed Smith Ultra Classic - 50 Km RaceUnited States | 50km | 3:14:31 h | 15.423 | 1/119 |
| 1998-03-14 | Way Too Cool 50K Endurance RunUnited States | 50km | 4:24:39 h | 11.336 | 25/375 |
| 1998-08-01 | Skyline 50k Endurance RunUnited States | 50km | 4:27:30 h | 11.215 | 9/237 |
| 1998-11-14 | 50mi | 6:53:20 h | 11.681 | 13/83 | |
| 1999-03-13 | Way Too Cool 50K Endurance RunUnited States | 50km | 4:19:48 h | 11.547 | 28/482 |
| 1999-04-10 | American River 50 Mile Endurance RunUnited States | 50mi | 6:50:47 h | 11.753 | 14/549 |
| 1999-07-31 | Vineman 50kUnited States | 50km | 3:59:12 h | 12.542 | 1/18 |
| 2000-01-29 | San Gabriel Mountain 50KUnited States | 50km | 4:58:26 h | 10.052 | 8/91 |
| 2000-03-11 | Way Too Cool 50K Endurance RunUnited States | 50km | 3:49:58 h | 13.045 | 3/480 |
| 2000-09-03 | Run On The Sly 50 KmUnited States | 50km | 4:02:49 h | 12.355 | 2/94 |
| 2001-02-10 | Jed Smith Ultra Classic - 50 Km RaceUnited States | 50km | 3:33:24 h | 14.058 | 5/76 |
| 2001-03-10 | Way Too Cool 50K Endurance RunUnited States | 50km | 4:01:45 h | 12.410 | 11/497 |
| 2001-09-02 | Run On The Sly 50 KmUnited States | 50km | 4:19:00 h | 11.583 | 1/88 |
| 2002-02-09 | Jed Smith Ultra Classic - 50 Km RaceUnited States | 50km | 3:33:33 h | 14.048 | 2/69 |
| 2002-08-10 | Pony Express 50 Mile RunUnited States | 50mi | 8:52:44 h | 9.063 | 2/10 |
| 2003-02-08 | Jed Smith Ultra Classic - 50 Km RaceUnited States | 50km | 3:23:29 h | 14.743 | 4/93 |
| 2003-03-08 | Way Too Cool 50K Endurance RunUnited States | 50km | 4:00:08 h | 12.493 | 16/475 |
| 2003-03-22 | 50km | 4:46:46 h | 10.461 | 3/92 | |
| 2003-04-05 | American River 50 Mile Endurance RunUnited States | 50mi | 6:38:39 h | 12.111 | 7/433 |
| 2003-05-17 | 50km | 5:42:38 h | 8.756 | 2/79 | |
| 2003-05-18 | Ohlone 50K Wilderness RunUnited States | 50km | 5:20:14 h | 9.368 | 2/92 |
| 2003-11-08 | 50km | 3:25:04 h | 14.629 | 1/32 | |
| 2004-02-07 | 50km | 3:18:06 h | 15.144 | 1/82 | |
| 2004-04-17 | Pony Express 50 Mile RunUnited States | 50mi | 5:54:17 h | 13.628 | 1/15 |
| 2004-09-05 | 50km | 4:19:03 h | 11.581 | 1/85 | |
| 2004-09-18 | Sierra Nevada Endurance 53 Mile RunUnited States | 53.2mi | 7:50:45 h | 10.912 | 1/42 |
| 2004-10-09 | 32.8mi | 5:31:19 h | 9.559 | 2/38 | |
| 2004-11-06 | Helen Klein Ultra Classic 50miUnited States | 50mi | 6:12:08 h | 12.974 | 1/70 |
| 2005-02-05 | 50km | 3:41:05 h | 13.570 | 6/66 | |
| 2007-08-04 | Cool 12 Hour Night RunUnited States | 12h | 72.420 km | 6.035 | 8/35 |
| 2007-09-02 | Run On The Sly 50 KmUnited States | 50km | 4:45:12 h | 10.519 | 4/89 |
| 2008-03-22 | Rucky Chucky Roundabout 50KUnited States | 50km | 5:53:00 h | 8.499 | 17/81 |
| 2008-04-19 | 50km | 3:53:26 h | 12.852 | 1/31 | |
| 2010-02-13 | 50km | 5:18:14 h | 9.427 | 2/22 | |
| 2010-04-24 | 50km | 4:08:33 h | 12.070 | 1/19 | |
| 2010-06-05 | 50km | 7:03:05 h | 7.091 | 10/31 | |
| 2010-07-17 | 12h | 72.420 km | 6.035 | 5/11 | |
| 2010-08-14 | Hotter than Hell 12 Hr RunUnited States | 12h | 90.525 km | 7.544 | 5/26 |
| 2011-08-13 | 12h | 84.490 km | 7.041 | 3/9 | |
| 2013-02-02 | 50km | 4:08:45 h | 12.060 | 20/97 | |
| 2013-02-09 | 50km | 5:01:37 h | 9.946 | 13/103 | |
| 2015-03-15 | Lake Natoma 50KUnited States | 50km | 4:18:58 h | 11.585 | 2/20 |
| 2018-02-17 | FOURmidable 50KUnited States | 50km | 6:28:28 h | 7.723 | 67/149 |
| 2019-01-19 | 50km | 5:35:35 h | 8.940 | 5/58 | |
| 2019-02-23 | 50km | 5:36:45 h | 8.909 | 29/237 |
Showing 1–50 of 52